Starlink 32605

operational
NORAD ID: 61921 Int'l Des: 2024-207 Owner: SPXS Country: US Constellation: starlink
LEOCIRCULAR

Über Starlink 32605

Beschreibung wird geladen...

Live-Position

3D-Globus wird geladen...

Nächste Überflüge

Höhenverlauf

Altitude vs Time

uPlot chart will show altitude changes over time

Zweizeiliger Elementsatz

1 61921U 24207K 25350.57984729 .00036338 00000-0 13219-2 0 9991
2 61921 43.0053 30.9203 0002289 283.2234 76.8363 15.27618556 62016
Epoch: 16. Dez. 2025 • Age: 30 hours

Aktueller Status

Höhe 486.8 km
Geschwindigkeit 7.63 km/s
Subsatellitenpunkt 40.67°N, 107.71°E
Startdatum 11. Nov. 2024
Alter 1 years
Typ internet

Technische Details

Klassifizierung Payload
Masse 730.00 kg
Trockenmasse 700.00 kg
Gesamtmasse 730.00 kg
Länge 0.30 m
Durchmesser 4.10 m
Spannweite 29.00 m
Form Box + pan
Hersteller SPXS
Bus-Typ Starlink V2M
Phasenstatus In Orbit
Besitzer/Staat SPXS/US

Große Konstellationen

Loading constellations...